Location: Mound City (historical)
(34.0564°N, 117.2656°W)
Time: 02:11:21
(UTC+00:00)

Cosmos 540 Rocket - Pass Details

Date: 08 September 2024
Orbit: 737 x 749 km, 74.1° (Epoch: 03 October)

Event Time Altitude Azimuth Distance (km) Brightness Sun altitude
Rises 12:14:39 0° 346° (NNW) 3,180 6.8 -15.6°
Reaches altitude 10° 12:17:02 10° 349° (N) 2,255 6.0 -15.2°
Maximum altitude 12:22:06 65° 72° (ENE) 813 3.9 -14.2°
Drops below altitude 10° 12:27:10 10° 154° (SSE) 2,250 6.1 -13.2°
Sets 12:29:32 0° 157° (SSE) 3,171 6.8 -12.7°
